• In Romania
  • List of Countries
  • For 7 days
  • Water Temperature
  • Satellite Maps
  • Weather Map
  • Weather Widgets
  • user-avatar
    Login

    Hourly Weather Kerns

    Today, 23 August, Wednesday

    Time Temperature Precipitation Wind Pressure Humidity
    00:00 +19°C° 0 mm 2 mps 763 mmHg 95%
    01:00 +18°C° 0 mm 2 mps 762 mmHg 95%
    02:00 +18°C° 0 mm 2 mps 762 mmHg 95%
    03:00 +18°C° 0 mm 2 mps 762 mmHg 95%
    04:00 +18°C° 0 mm 2 mps 762 mmHg 96%
    05:00 +18°C° 0 mm 2 mps 762 mmHg 96%
    06:00 +18°C° 0 mm 2 mps 763 mmHg 96%
    07:00 +18°C° 0 mm 2 mps 763 mmHg 96%
    08:00 +21°C° 0 mm 3 mps 763 mmHg 84%
    09:00 +25°C° 0 mm 3 mps 763 mmHg 72%
    10:00 +28°C° 0 mm 3 mps 763 mmHg 58%
    11:00 +29°C° 0 mm 3 mps 762 mmHg 54%
    12:00 +30°C° 0 mm 4 mps 762 mmHg 50%
    13:00 +32°C° 0 mm 4 mps 762 mmHg 45%
    14:00 +30°C° 0 mm 4 mps 761 mmHg 47%
    15:00 +30°C° 0 mm 4 mps 761 mmHg 49%
    16:00 +29°C° 0 mm 4 mps 761 mmHg 52%
    17:00 +27°C° 0 mm 3 mps 761 mmHg 64%
    18:00 +24°C° 0 mm 3 mps 761 mmHg 75%
    19:00 +21°C° 0 mm 3 mps 761 mmHg 86%
    20:00 +20°C° 0 mm 3 mps 762 mmHg 89%
    21:00 +20°C° 0 mm 3 mps 762 mmHg 92%
    22:00 +19°C° 0 mm 3 mps 762 mmHg 94%
    23:00 +19°C° 0 mm 3 mps 762 mmHg 95%

    Tomorrow, 24 August, Thursday

    Time Temperature Precipitation Wind Pressure Humidity
    00:00 +19°C° 0 mm 3 mps 762 mmHg 95%
    01:00 +18°C° 0 mm 2 mps 762 mmHg 95%
    02:00 +18°C° 0 mm 2 mps 762 mmHg 96%
    03:00 +18°C° 0 mm 2 mps 761 mmHg 96%
    04:00 +18°C° 0 mm 2 mps 761 mmHg 96%
    05:00 +18°C° 0 mm 2 mps 761 mmHg 96%
    06:00 +18°C° 0 mm 2 mps 762 mmHg 96%
    07:00 +18°C° 0 mm 2 mps 762 mmHg 96%
    08:00 +21°C° 0 mm 2 mps 762 mmHg 82%
    09:00 +25°C° 0 mm 2 mps 762 mmHg 68%
    10:00 +28°C° 0 mm 3 mps 762 mmHg 54%
    11:00 +29°C° 0 mm 3 mps 761 mmHg 50%
    12:00 +31°C° 0 mm 3 mps 761 mmHg 46%
    13:00 +33°C° 0 mm 3 mps 760 mmHg 42%
    14:00 +31°C° 0 mm 3 mps 760 mmHg 45%
    15:00 +31°C° 0 mm 3 mps 759 mmHg 47%
    16:00 +30°C° 0 mm 4 mps 759 mmHg 50%
    17:00 +28°C° 0 mm 3 mps 759 mmHg 63%
    18:00 +25°C° 0 mm 3 mps 759 mmHg 76%
    19:00 +22°C° 0 mm 3 mps 760 mmHg 88%
    20:00 +21°C° 0 mm 2 mps 760 mmHg 90%
    21:00 +20°C° 0 mm 2 mps 761 mmHg 92%
    22:00 +20°C° 0 mm 2 mps 761 mmHg 95%
    23:00 +20°C° 0 mm 2 mps 761 mmHg 95%

    Day after tomorrow, 25 August, Friday

    Time Temperature Precipitation Wind Pressure Humidity
    00:00 +20°C° 0 mm 1 mps 761 mmHg 95%
    01:00 +20°C° 0 mm 1 mps 760 mmHg 95%
    02:00 +20°C° 0 mm 1 mps 760 mmHg 95%
    03:00 +19°C° 0 mm 2 mps 760 mmHg 95%
    04:00 +19°C° 0 mm 2 mps 760 mmHg 95%
    05:00 +19°C° 0 mm 2 mps 760 mmHg 94%
    06:00 +19°C° 0 mm 2 mps 761 mmHg 93%
    07:00 +19°C° 0 mm 2 mps 761 mmHg 92%
    08:00 +21°C° 0 mm 3 mps 761 mmHg 78%
    09:00 +25°C° 0 mm 3 mps 761 mmHg 64%
    10:00 +28°C° 0 mm 3 mps 762 mmHg 51%
    11:00 +29°C° 0 mm 4 mps 761 mmHg 48%
    12:00 +30°C° 0 mm 4 mps 760 mmHg 46%
    13:00 +32°C° 0 mm 4 mps 760 mmHg 43%
    14:00 +32°C° 0 mm 4 mps 759 mmHg 45%
    15:00 +30°C° 0 mm 5 mps 759 mmHg 48%
    16:00 +30°C° 0 mm 5 mps 759 mmHg 50%
    17:00 +28°C° 0 mm 4 mps 759 mmHg 61%
    18:00 +25°C° 0 mm 4 mps 760 mmHg 72%
    19:00 +22°C° 0 mm 4 mps 760 mmHg 83%
    20:00 +21°C° 0 mm 3 mps 761 mmHg 84%
    21:00 +20°C° 0 mm 3 mps 761 mmHg 85%
    22:00 +19°C° 0 mm 3 mps 762 mmHg 86%
    23:00 +19°C° 0 mm 3 mps 761 mmHg 85%

    26 August, Saturday

    Time Temperature Precipitation Wind Pressure Humidity
    00:00 +19°C° 0 mm 3 mps 761 mmHg 84%
    01:00 +18°C° 0 mm 3 mps 761 mmHg 84%
    02:00 +18°C° 0 mm 4 mps 761 mmHg 87%
    03:00 +18°C° 0 mm 4 mps 760 mmHg 91%
    04:00 +18°C° 0 mm 4 mps 760 mmHg 95%
    05:00 +19°C° 0.1 mm 4 mps 761 mmHg 95%
    06:00 +19°C° 0.1 mm 4 mps 761 mmHg 96%
    07:00 +19°C° 0.1 mm 5 mps 762 mmHg 96%
    08:00 +21°C° 0.1 mm 5 mps 762 mmHg 89%
    09:00 +23°C° 0.1 mm 5 mps 762 mmHg 82%
    10:00 +26°C° 0.1 mm 6 mps 763 mmHg 75%
    11:00 +26°C° 0.1 mm 6 mps 762 mmHg 73%
    12:00 +27°C° 0.1 mm 6 mps 761 mmHg 70%
    13:00 +27°C° 0.1 mm 6 mps 761 mmHg 68%
    14:00 +27°C° 0.1 mm 6 mps 761 mmHg 70%
    15:00 +26°C° 0.1 mm 6 mps 760 mmHg 71%
    16:00 +24°C° 0.1 mm 6 mps 760 mmHg 73%
    17:00 +23°C° 0.1 mm 6 mps 761 mmHg 78%
    18:00 +22°C° 0.1 mm 6 mps 761 mmHg 83%
    19:00 +20°C° 0.1 mm 5 mps 762 mmHg 88%
    20:00 +20°C° 0 mm 5 mps 762 mmHg 90%
    21:00 +19°C° 0 mm 5 mps 763 mmHg 92%
    22:00 +19°C° 0 mm 5 mps 763 mmHg 94%
    23:00 +19°C° 0 mm 5 mps 763 mmHg 94%

    27 August, Sunday

    Time Temperature Precipitation Wind Pressure Humidity
    00:00 +17°C° 0 mm 5 mps 762 mmHg 94%
    01:00 +17°C° 0 mm 5 mps 762 mmHg 94%
    02:00 +17°C° 0 mm 5 mps 762 mmHg 95%
    03:00 +17°C° 0 mm 5 mps 761 mmHg 95%
    04:00 +17°C° 0 mm 5 mps 761 mmHg 95%
    05:00 +19°C° 0 mm 5 mps 762 mmHg 95%
    06:00 +19°C° 0 mm 5 mps 762 mmHg 94%
    07:00 +19°C° 0 mm 5 mps 763 mmHg 94%
    08:00 +21°C° 0 mm 5 mps 763 mmHg 84%
    09:00 +23°C° 0 mm 6 mps 763 mmHg 74%
    10:00 +26°C° 0 mm 6 mps 763 mmHg 64%
    11:00 +27°C° 0 mm 6 mps 762 mmHg 59%
    12:00 +28°C° 0 mm 6 mps 761 mmHg 54%
    13:00 +29°C° 0 mm 6 mps 761 mmHg 50%
    14:00 +29°C° 0 mm 6 mps 760 mmHg 52%
    15:00 +28°C° 0 mm 6 mps 760 mmHg 54%
    16:00 +28°C° 0 mm 6 mps 760 mmHg 56%
    17:00 +26°C° 0 mm 6 mps 760 mmHg 66%
    18:00 +23°C° 0 mm 5 mps 761 mmHg 75%
    19:00 +21°C° 0 mm 5 mps 762 mmHg 85%
    20:00 +20°C° 0 mm 5 mps 762 mmHg 88%
    21:00 +20°C° 0 mm 5 mps 762 mmHg 92%
    22:00 +19°C° 0 mm 5 mps 762 mmHg 95%
    23:00 +20°C° 0 mm 5 mps 762 mmHg 95%

    28 August, Monday

    Time Temperature Precipitation Wind Pressure Humidity
    00:00 +20°C° 0 mm 5 mps 762 mmHg 95%
    01:00 +20°C° 0 mm 5 mps 761 mmHg 96%
    02:00 +20°C° 0.1 mm 4 mps 761 mmHg 96%
    03:00 +20°C° 0.1 mm 4 mps 761 mmHg 96%
    04:00 +20°C° 0.1 mm 4 mps 761 mmHg 95%
    05:00 +20°C° 0.1 mm 4 mps 761 mmHg 95%
    06:00 +21°C° 0.1 mm 5 mps 762 mmHg 95%
    07:00 +21°C° 0.1 mm 5 mps 762 mmHg 95%
    08:00 +22°C° 0.2 mm 5 mps 762 mmHg 91%
    09:00 +23°C° 0.2 mm 5 mps 762 mmHg 87%
    10:00 +24°C° 0.2 mm 6 mps 763 mmHg 83%
    11:00 +24°C° 0.2 mm 6 mps 762 mmHg 81%
    12:00 +24°C° 0.2 mm 6 mps 761 mmHg 80%
    13:00 +25°C° 0.2 mm 5 mps 761 mmHg 78%
    14:00 +24°C° 0.1 mm 6 mps 761 mmHg 78%
    15:00 +24°C° 0.1 mm 6 mps 760 mmHg 77%
    16:00 +24°C° 0.1 mm 6 mps 760 mmHg 77%
    17:00 +23°C° 0.1 mm 5 mps 761 mmHg 82%
    18:00 +22°C° 0.1 mm 5 mps 761 mmHg 87%
    19:00 +21°C° 0.1 mm 5 mps 762 mmHg 92%
    20:00 +21°C° 0.1 mm 5 mps 762 mmHg 93%
    21:00 +20°C° 0.1 mm 5 mps 762 mmHg 95%
    22:00 +20°C° 0.1 mm 5 mps 763 mmHg 96%
    23:00 +20°C° 0.1 mm 5 mps 762 mmHg 96%
    Show more